DW7126 Lourinha PT current weather conditions

sailwx.info

Wind from 224

Air temperature 15.6° C
Dewpoint 13.6° C

Last reported at 2014-Oct-25 22:50 UTC.
Time now 2014-Oct-25 23:30 UTC

Location: N 39°14' W 009°18'.
View on Google Maps.

See reports from other nearby stations

  
Tides and Currents Weather Stations Pressure Air Temp Water Temp Dewpoint Dewpoint Depression Visibility Wind Speed Wind Dir Waves Ship Positions
date/time (UTC)wind fromknots sea level pressurealtimeterstation pressurevisibilityair tempwater tempwave heightnotes
2014-Oct-25 22:50 224 15.6
2014-Oct-25 22:45 224 15.6
2014-Oct-25 22:40 224 15.6
2014-Oct-25 22:35 224 16.1
2014-Oct-25 22:30 225 15.6
2014-Oct-25 22:25 224 15.6
2014-Oct-25 22:20 225 15.6
2014-Oct-25 22:15 223 16.1
2014-Oct-25 22:10 223 16.1
2014-Oct-25 22:05 223 16.1
2014-Oct-25 22:00 223 16.1
2014-Oct-25 21:55 223 16.1
2014-Oct-25 21:50 223 16.1
2014-Oct-25 21:45 223 16.7
2014-Oct-25 21:40 223 16.7
2014-Oct-25 21:35 223 16.7
2014-Oct-25 21:30 223 16.7
2014-Oct-25 21:25 223 17.2
2014-Oct-25 21:20 223 17.2
2014-Oct-25 21:15 223 17.2
2014-Oct-25 21:10 223 17.2
2014-Oct-25 21:05 223 17.2
2014-Oct-25 21:00 223 16.7
2014-Oct-25 20:55 223 17.8
2014-Oct-25 20:50 223 17.8
2014-Oct-25 20:45 223 17.2
2014-Oct-25 20:40 223 17.2
2014-Oct-25 20:35 223 17.2
2014-Oct-25 20:30 223 17.2
2014-Oct-25 20:25 223 17.2
2014-Oct-25 20:20 223 17.8
2014-Oct-25 20:15 223 17.8
2014-Oct-25 20:10 223 18.3
2014-Oct-25 20:05 223 18.3
2014-Oct-25 20:00 223 18.3
2014-Oct-25 19:55 223 18.9
2014-Oct-25 19:50 223 19.4
2014-Oct-25 19:45 223 19.4
2014-Oct-25 19:40 223 19.4
2014-Oct-25 19:35 223 19.4
2014-Oct-25 19:30 223 19.4
2014-Oct-25 19:25 223 19.4
2014-Oct-25 19:20 223 19.4
2014-Oct-25 19:15 223 19.4
2014-Oct-25 19:10 223 19.4
2014-Oct-25 19:05 223 20.0
2014-Oct-25 19:00 223 20.0
2014-Oct-25 18:55 223 20.0
2014-Oct-25 18:50 223 20.0
2014-Oct-25 18:45 223 20.0
2014-Oct-25 18:40 223 20.0
2014-Oct-25 18:35 224 20.0
2014-Oct-25 18:30 225 0 gusting 2 20.0
2014-Oct-25 18:25 226 20.0
2014-Oct-25 18:20 227 1 gusting 5 20.0
2014-Oct-25 18:15 360 0 gusting 1 20.0
2014-Oct-25 18:10 265 20.0
2014-Oct-25 18:05 266 20.0
2014-Oct-25 18:00 266 20.0
2014-Oct-25 17:55 267 0 gusting 2 20.6
2014-Oct-25 17:50 281 20.6
2014-Oct-25 17:45 281 20.6
2014-Oct-25 17:40 281 21.1
2014-Oct-25 17:35 281 21.1
2014-Oct-25 17:30 281 21.1
2014-Oct-25 17:25 281 21.1
2014-Oct-25 17:20 281 21.1
2014-Oct-25 17:15 281 21.7
2014-Oct-25 17:10 281 0 gusting 1 21.7
2014-Oct-25 17:05 283 21.7
2014-Oct-25 17:00 284 0 gusting 3 22.2
2014-Oct-25 16:55 288 1 gusting 3 22.2
2014-Oct-25 16:50 279 22.8
2014-Oct-25 16:45 279 22.8
2014-Oct-25 16:40 272 22.8
2014-Oct-25 16:35 272 0 gusting 5 22.8
2014-Oct-25 16:30 268 1 gusting 5 22.8
2014-Oct-25 16:25 360 3 gusting 6 22.8
2014-Oct-25 16:20 269 2 gusting 6 23.3
2014-Oct-25 16:15 360 1 gusting 5 23.9
2014-Oct-25 16:10 317 0 gusting 2 23.9
2014-Oct-25 16:05 317 0 gusting 3 24.4
2014-Oct-25 16:00 318 0 gusting 3 24.4
2014-Oct-25 15:55 318 24.4
2014-Oct-25 15:50 316 25.0
2014-Oct-25 15:45 316 2 gusting 5 25.0
2014-Oct-25 15:40 315 0 gusting 3 25.6
2014-Oct-25 15:35 317 1 gusting 3 25.6
2014-Oct-25 15:30 264 25.6
2014-Oct-25 15:25 264 0 gusting 3 25.6
2014-Oct-25 15:20 255 1 gusting 3 25.6
2014-Oct-25 15:15 269 25.6
2014-Oct-25 15:10 269 25.6
2014-Oct-25 15:05 270 0 gusting 6 25.6
2014-Oct-25 15:00 258 1 gusting 5 25.6
2014-Oct-25 14:55 262 1 gusting 5 25.0
2014-Oct-25 14:50 267 2 gusting 5 25.0
2014-Oct-25 14:45 265 0 gusting 3 25.0
2014-Oct-25 14:40 262 25.6
2014-Oct-25 14:35 262 0 gusting 3 25.6
2014-Oct-25 14:30 262 1 gusting 3 25.6
2014-Oct-25 14:25 360 0 gusting 3 25.6
2014-Oct-25 14:20 281 1 gusting 6 25.6
2014-Oct-25 14:15 253 1 gusting 8 25.0
2014-Oct-25 14:10 281 4 gusting 8 25.0
2014-Oct-25 14:05 249 3 gusting 6 25.6
2014-Oct-25 14:00 264 0 gusting 3 26.1
2014-Oct-25 13:55 271 0 gusting 6 27.2
2014-Oct-25 13:50 153 3 gusting 6 27.2
2014-Oct-25 13:45 360 0 gusting 7 26.7
2014-Oct-25 13:40 180 0 gusting 7 26.7
2014-Oct-25 13:35 172 2 gusting 7 26.7
2014-Oct-25 13:30 201 2 gusting 6 27.2
2014-Oct-25 13:25 113 2 gusting 5 26.7
2014-Oct-25 13:20 125 2 gusting 7 26.7
2014-Oct-25 13:15 360 4 gusting 9 26.7
2014-Oct-25 13:10 105 5 gusting 9 26.7
2014-Oct-25 13:05 121 6 gusting 8 26.7
2014-Oct-25 13:00 112 2 gusting 8 26.7
2014-Oct-25 12:55 156 5 gusting 8 26.7
2014-Oct-25 12:50 109 2 gusting 9 26.7
2014-Oct-25 12:45 128 4 gusting 12 26.1
2014-Oct-25 12:40 086 6 gusting 13 26.1
2014-Oct-25 12:35 101 7 gusting 13 26.1
2014-Oct-25 12:30 113 5 gusting 11 25.6
2014-Oct-25 12:25 152 6 gusting 10 25.6
2014-Oct-25 12:20 108 5 gusting 9 25.6
2014-Oct-25 12:15 107 6 gusting 11 25.6
2014-Oct-25 12:10 107 7 gusting 11 25.6
2014-Oct-25 12:05 103 8 gusting 13 25.0
2014-Oct-25 12:00 098 8 gusting 13 25.0
2014-Oct-25 11:55 089 8 gusting 12 25.0
2014-Oct-25 11:50 101 7 gusting 11 25.0
2014-Oct-25 11:45 100 6 gusting 11 25.0
2014-Oct-25 11:40 126 6 gusting 11 25.0
2014-Oct-25 11:35 086 8 gusting 11 25.0
2014-Oct-25 11:30 092 6 gusting 11 25.0
2014-Oct-25 11:25 115 4 gusting 11 25.0
2014-Oct-25 11:20 116 6 gusting 13 25.0
2014-Oct-25 11:15 112 8 gusting 13 24.4
2014-Oct-25 11:10 107 6 gusting 12 25.0
2014-Oct-25 11:05 103 6 gusting 12 24.4
2014-Oct-25 11:00 139 6 gusting 12 23.9
2014-Oct-25 10:55 092 6 gusting 12 24.4
2014-Oct-25 10:50 104 6 gusting 8 23.9
2014-Oct-25 10:45 092 6 gusting 13 23.3
2014-Oct-25 10:40 360 8 gusting 13 23.3
2014-Oct-25 10:35 084 9 gusting 13 23.3
2014-Oct-25 10:30 084 8 gusting 13 23.3
2014-Oct-25 10:25 087 6 gusting 13 23.9
2014-Oct-25 10:20 091 7 gusting 15 23.3
2014-Oct-25 10:15 110 11 gusting 15 22.8
2014-Oct-25 10:10 086 11 gusting 15 22.8
2014-Oct-25 10:05 094 13 gusting 16 22.2
2014-Oct-25 10:00 084 12 gusting 18 22.2
2014-Oct-25 09:55 092 12 gusting 18 22.2
2014-Oct-25 09:50 092 13 gusting 18 22.2
2014-Oct-25 09:45 109 12 gusting 16 22.2
2014-Oct-25 09:40 106 13 gusting 16 21.7
2014-Oct-25 09:35 089 13 gusting 16 21.7
2014-Oct-25 09:30 091 12 gusting 16 21.7
2014-Oct-25 09:25 090 12 gusting 14 21.7
2014-Oct-25 09:20 107 9 gusting 16 21.7
2014-Oct-25 09:15 096 12 gusting 16 21.1
2014-Oct-25 09:10 079 11 gusting 15 21.1
2014-Oct-25 09:05 103 12 gusting 15 21.1
2014-Oct-25 09:00 084 13 gusting 16 21.1
2014-Oct-25 08:55 085 13 gusting 18 21.1
2014-Oct-25 08:50 098 13 gusting 18 21.1
2014-Oct-25 08:45 096 13 gusting 18 20.6
2014-Oct-25 08:40 091 13 gusting 19 20.6
2014-Oct-25 08:35 088 15 gusting 19 20.6
2014-Oct-25 08:30 092 13 gusting 19 20.6
2014-Oct-25 08:25 094 14 gusting 19 20.6
2014-Oct-25 08:20 092 13 gusting 18 20.6
2014-Oct-25 08:15 089 13 gusting 18 20.6
2014-Oct-25 08:10 092 11 gusting 16 20.6
2014-Oct-25 08:05 091 11 gusting 14 20.6
2014-Oct-25 08:00 071 8 gusting 13 20.6
2014-Oct-25 07:55 075 9 gusting 13 20.0
2014-Oct-25 07:50 096 8 gusting 13 20.0
2014-Oct-25 07:45 101 8 gusting 11 20.0
2014-Oct-25 07:40 098 7 gusting 11 20.0
2014-Oct-25 07:35 113 6 gusting 8 20.0
2014-Oct-25 07:30 102 5 gusting 8 20.0
2014-Oct-25 07:25 087 6 gusting 8 19.4
2014-Oct-25 07:20 086 6 gusting 8 19.4
2014-Oct-25 07:15 090 6 gusting 9 19.4
2014-Oct-25 07:10 092 6 gusting 11 19.4
2014-Oct-25 07:05 084 7 gusting 11 20.0
2014-Oct-25 07:00 086 8 gusting 12 20.0
2014-Oct-25 06:55 086 8 gusting 11 20.6
2014-Oct-25 06:50 081 10 gusting 12 20.6
2014-Oct-25 06:45 096 9 gusting 11 20.6
2014-Oct-25 06:40 090 9 gusting 11 20.6
2014-Oct-25 06:35 085 8 gusting 13 20.6
2014-Oct-25 06:30 094 9 gusting 13 20.6
2014-Oct-25 06:25 105 8 gusting 12 20.6
2014-Oct-25 06:20 103 7 gusting 11 20.6
2014-Oct-25 06:15 082 7 gusting 11 20.6
2014-Oct-25 06:10 087 6 gusting 9 20.6
2014-Oct-25 06:05 083 6 gusting 9 20.6
2014-Oct-25 06:00 086 6 gusting 9 20.6
2014-Oct-25 05:55 096 6 gusting 9 20.6
2014-Oct-25 05:50 083 6 gusting 8 20.6
2014-Oct-25 05:45 108 6 gusting 9 20.6
2014-Oct-25 05:40 089 6 gusting 11 21.1
2014-Oct-25 05:35 094 8 gusting 12 21.1
2014-Oct-25 05:30 086 9 gusting 12 21.1
2014-Oct-25 05:25 095 8 gusting 13 21.1
2014-Oct-25 05:20 108 9 gusting 13 21.1
2014-Oct-25 05:15 110 7 gusting 13 21.1
2014-Oct-25 05:10 085 9 gusting 13 21.1
2014-Oct-25 05:05 092 8 gusting 13 21.1
2014-Oct-25 05:00 091 9 gusting 13 21.1
2014-Oct-25 04:55 084 8 gusting 13 21.1
2014-Oct-25 04:50 092 9 gusting 12 21.7
2014-Oct-25 04:45 092 9 gusting 13 21.7
2014-Oct-25 04:40 115 9 gusting 13 21.7
2014-Oct-25 04:35 096 9 gusting 13 21.7
2014-Oct-25 04:30 086 9 gusting 14 21.7
2014-Oct-25 04:25 097 10 gusting 14 21.7
2014-Oct-25 04:20 082 11 gusting 13 21.7
2014-Oct-25 04:15 086 11 gusting 13 21.7
2014-Oct-25 04:10 090 11 gusting 13 21.7
2014-Oct-25 04:05 104 10 gusting 13 22.2
2014-Oct-25 04:00 070 9 gusting 13 22.2
2014-Oct-25 03:55 091 10 gusting 13 22.2
2014-Oct-25 03:50 106 9 gusting 13 22.2
2014-Oct-25 03:45 102 9 gusting 13 22.2
2014-Oct-25 03:40 107 9 gusting 13 22.2
2014-Oct-25 03:35 101 8 gusting 11 22.2
2014-Oct-25 03:30 097 8 gusting 12 22.2
2014-Oct-25 03:25 107 8 gusting 12 21.7
2014-Oct-25 03:20 103 7 gusting 13 21.7
2014-Oct-25 03:15 107 8 gusting 13 22.2
2014-Oct-25 03:10 105 7 gusting 13 22.2
2014-Oct-25 03:05 094 9 gusting 13 22.2
2014-Oct-25 03:00 108 7 gusting 12 22.2
2014-Oct-25 02:55 108 8 gusting 13 22.2
2014-Oct-25 02:50 112 8 gusting 13 22.2
2014-Oct-25 02:45 097 9 gusting 13 22.2
2014-Oct-25 02:40 104 9 gusting 13 21.7
2014-Oct-25 02:35 110 8 gusting 12 21.7
2014-Oct-25 02:30 092 7 gusting 10 21.7
2014-Oct-25 02:25 360 7 gusting 11 21.7
2014-Oct-25 02:20 360 6 gusting 9 21.7
2014-Oct-25 02:15 102 6 gusting 10 21.7
2014-Oct-25 02:10 082 6 gusting 10 21.7
2014-Oct-25 02:05 120 6 gusting 10 21.7
2014-Oct-25 02:00 121 6 gusting 8 21.7
2014-Oct-25 01:55 113 4 gusting 7 21.7
2014-Oct-25 01:50 360 5 gusting 7 21.7
2014-Oct-25 01:45 117 3 gusting 6 21.7
2014-Oct-25 01:40 123 3 gusting 6 21.7
2014-Oct-25 01:35 117 0 gusting 6 21.7
2014-Oct-25 01:30 130 3 gusting 6 21.1
2014-Oct-25 01:25 148 3 gusting 7 21.1
2014-Oct-25 01:20 144 3 gusting 6 21.1
2014-Oct-25 01:15 118 3 gusting 6 21.1
2014-Oct-25 01:10 117 1 gusting 6 21.1
2014-Oct-25 01:05 100 2 gusting 6 21.1
2014-Oct-25 01:00 113 1 gusting 6 21.1
2014-Oct-25 00:55 111 3 gusting 6 20.6
2014-Oct-25 00:50 115 1 gusting 3 20.0
2014-Oct-25 00:45 105 0 gusting 3 19.4
2014-Oct-25 00:40 113 19.4
2014-Oct-25 00:35 109 19.4
2014-Oct-25 00:30 110 0 gusting 3 19.4
2014-Oct-25 00:25 106 0 gusting 3 19.4
2014-Oct-25 00:20 103 0 gusting 2 19.4
2014-Oct-25 00:15 111 19.4
2014-Oct-25 00:10 110 0 gusting 4 18.9
2014-Oct-25 00:05 103 1 gusting 4 18.3
2014-Oct-25 00:00 076 0 gusting 2 17.2
2014-Oct-24 23:55 065 17.2
2014-Oct-24 23:50 065 17.2
2014-Oct-24 23:45 065 16.7
2014-Oct-24 23:40 065 16.7
2014-Oct-24 23:35 065 16.7
2014-Oct-24 23:30 065 16.7
2014-Oct-24 23:25 065 16.7
2014-Oct-24 23:20 065 0 gusting 4 17.2
2014-Oct-24 23:15 065 2 gusting 4 16.7
2014-Oct-24 23:10 360 0 gusting 1 17.2
2014-Oct-24 23:05 098 17.2
2014-Oct-24 23:00 098 17.2
2014-Oct-24 22:55 098 18.3
2014-Oct-24 22:50 098 18.3
2014-Oct-24 22:45 098 18.9
2014-Oct-24 22:40 098 18.9
2014-Oct-24 22:35 107 19.4
2014-Oct-24 22:30 098 0 gusting 1 19.4
2014-Oct-24 22:25 096 19.4
2014-Oct-24 22:20 096 0 gusting 2 18.9
2014-Oct-24 22:15 072 18.9
2014-Oct-24 22:10 072 18.9
2014-Oct-24 22:05 071 18.9
2014-Oct-24 22:00 071 19.4
2014-Oct-24 21:55 071 19.4
2014-Oct-24 21:50 071 19.4
2014-Oct-24 21:45 071 19.4
2014-Oct-24 21:40 071 20.0
2014-Oct-24 21:35 071 19.4
2014-Oct-24 21:30 071 19.4
2014-Oct-24 21:25 071 19.4
2014-Oct-24 21:20 071 20.0
2014-Oct-24 21:15 071 20.0
2014-Oct-24 21:10 071 20.0
2014-Oct-24 21:05 071 20.0
2014-Oct-24 21:00 071 20.0
2014-Oct-24 20:55 071 20.0
2014-Oct-24 20:50 071 20.0
2014-Oct-24 20:45 071 20.0
2014-Oct-24 20:40 071 20.0
2014-Oct-24 20:35 071 20.6
2014-Oct-24 20:30 071 20.6
2014-Oct-24 20:25 071 20.6
2014-Oct-24 20:20 071 20.6
2014-Oct-24 20:15 071 20.6
2014-Oct-24 20:10 071 20.6
2014-Oct-24 20:05 071 20.6
2014-Oct-24 20:00 071 20.6
2014-Oct-24 19:55 071 20.6
2014-Oct-24 19:50 071 20.6
2014-Oct-24 19:45 071 20.6
2014-Oct-24 19:40 071 20.6
2014-Oct-24 19:35 071 21.1
2014-Oct-24 19:30 071 21.1
2014-Oct-24 19:25 071 21.1
2014-Oct-24 19:20 071 21.1
2014-Oct-24 19:15 071 21.1
2014-Oct-24 19:10 071 21.7
2014-Oct-24 19:05 071 0 gusting 1 21.7
2014-Oct-24 19:00 071 21.7
2014-Oct-24 18:55 071 1 gusting 3 21.7
2014-Oct-24 18:50 071 22.2
2014-Oct-24 18:45 071 22.2
2014-Oct-24 18:40 071 22.2
2014-Oct-24 18:35 071 22.2
2014-Oct-24 18:30 070 1 gusting 3 22.2
2014-Oct-24 18:25 059 0 gusting 2 22.2
2014-Oct-24 18:20 051 22.2
2014-Oct-24 18:15 050 22.8
2014-Oct-24 18:10 050 22.8
2014-Oct-24 18:05 050 22.8
2014-Oct-24 18:00 050 22.8
2014-Oct-24 17:55 071 23.3
2014-Oct-24 17:50 071 23.3
2014-Oct-24 17:45 071 0 gusting 3 23.3
2014-Oct-24 17:40 074 1 gusting 3 23.9
2014-Oct-24 17:35 063 1 gusting 3 23.9
2014-Oct-24 17:30 037 0 gusting 3 23.9
2014-Oct-24 17:25 017 1 gusting 4 24.4
2014-Oct-24 17:20 012 2 gusting 3 25.0
2014-Oct-24 17:15 351 0 gusting 6 25.0
2014-Oct-24 17:10 350 0 gusting 6 25.0
2014-Oct-24 17:05 360 0 gusting 2 25.6
2014-Oct-24 17:00 360 0 gusting 2 26.1
2014-Oct-24 16:55 360 26.1
2014-Oct-24 16:50 355 1 gusting 5 26.7
2014-Oct-24 16:45 346 2 gusting 5 26.7
2014-Oct-24 16:40 057 26.7
2014-Oct-24 16:35 061 26.7
2014-Oct-24 16:30 061 0 gusting 2 26.7
2014-Oct-24 16:25 060 0 gusting 2 26.7
2014-Oct-24 16:20 060 27.2
2014-Oct-24 16:15 060 27.2
2014-Oct-24 16:10 059 27.2
2014-Oct-24 16:05 057 0 gusting 2 26.7
2014-Oct-24 16:00 056 0 gusting 3 27.2
2014-Oct-24 15:55 048 1 gusting 3 27.2
2014-Oct-24 15:50 061 0 gusting 3 27.2
2014-Oct-24 15:45 059 0 gusting 3 27.2
2014-Oct-24 15:40 064 27.2
2014-Oct-24 15:35 064 0 gusting 3 27.2
2014-Oct-24 15:30 065 1 gusting 3 27.2
2014-Oct-24 15:25 063 1 gusting 4 27.2
2014-Oct-24 15:20 065 2 gusting 6 27.2
2014-Oct-24 15:15 067 3 gusting 6 27.2
2014-Oct-24 15:10 065 1 gusting 4 27.2
2014-Oct-24 15:05 059 1 gusting 4 27.2
2014-Oct-24 15:00 049 1 gusting 6 27.2
2014-Oct-24 14:55 055 3 gusting 6 27.2
2014-Oct-24 14:50 064 5 gusting 6 27.8
2014-Oct-24 14:45 087 2 gusting 6 27.8
2014-Oct-24 14:20 073 6 gusting 7 27.8
2014-Oct-24 14:15 049 3 gusting 7 27.8
2014-Oct-24 14:10 061 6 gusting 8 27.8
2014-Oct-24 14:05 059 6 gusting 8 27.8
2014-Oct-24 14:00 042 5 gusting 6 27.8
2014-Oct-24 13:55 078 27.8
2014-Oct-24 13:50 067 0 gusting 3 27.2
2014-Oct-24 13:45 080 1 gusting 4 27.2
2014-Oct-24 13:40 059 2 gusting 6 27.2
2014-Oct-24 13:35 063 3 gusting 7 27.2
2014-Oct-24 13:30 063 3 gusting 7 27.2
2014-Oct-24 13:25 079 4 gusting 9 27.2
2014-Oct-24 13:20 360 6 gusting 9 27.2
2014-Oct-24 13:15 055 4 gusting 8 27.2
2014-Oct-24 13:10 051 5 gusting 8 27.2
2014-Oct-24 13:05 059 6 gusting 8 27.2
2014-Oct-24 13:00 055 6 gusting 7 27.2
2014-Oct-24 12:55 069 5 gusting 7 27.2
2014-Oct-24 12:50 056 6 gusting 7 26.7
2014-Oct-24 12:45 063 3 gusting 6 26.7
2014-Oct-24 12:40 059 6 gusting 7 26.7
2014-Oct-24 12:35 071 5 gusting 8 26.7
2014-Oct-24 12:30 059 5 gusting 8 26.7
2014-Oct-24 12:25 360 6 gusting 8 26.7
2014-Oct-24 12:20 069 6 gusting 8 26.1
2014-Oct-24 12:15 059 4 gusting 7 26.1
2014-Oct-24 12:10 067 5 gusting 6 26.1
2014-Oct-24 12:05 049 3 gusting 6 26.1
2014-Oct-24 12:00 078 3 gusting 5 25.6
2014-Oct-24 11:55 076 2 gusting 7 25.6
2014-Oct-24 11:50 067 4 gusting 8 25.6
2014-Oct-24 11:45 082 5 gusting 8 25.6
2014-Oct-24 11:40 044 3 gusting 6 25.0
2014-Oct-24 11:35 100 4 gusting 6 25.0
2014-Oct-24 11:30 065 3 gusting 8 25.0
2014-Oct-24 11:25 083 6 gusting 8 24.4
2014-Oct-24 11:20 077 6 gusting 8 24.4
2014-Oct-24 11:15 360 5 gusting 7 24.4
2014-Oct-24 11:10 083 5 gusting 8 24.4
2014-Oct-24 11:05 069 6 gusting 8 23.9
2014-Oct-24 11:00 074 6 gusting 8 23.9
2014-Oct-24 10:55 101 6 gusting 8 23.9
2014-Oct-24 10:50 083 6 gusting 11 23.9
2014-Oct-24 10:45 073 6 gusting 11 23.9
2014-Oct-24 10:40 090 7 gusting 9 23.9
2014-Oct-24 10:35 094 7 gusting 12 23.9
2014-Oct-24 10:30 360 7 gusting 11 23.9
2014-Oct-24 10:25 360 5 gusting 6 23.9
2014-Oct-24 10:20 051 5 gusting 6 23.9
2014-Oct-24 10:15 065 3 gusting 5 23.9
2014-Oct-24 10:10 059 3 gusting 4 23.9
2014-Oct-24 10:05 058 23.9
2014-Oct-24 10:00 059 0 gusting 2 23.3
2014-Oct-24 09:55 061 0 gusting 2 23.3
2014-Oct-24 09:50 067 23.3
2014-Oct-24 09:45 070 22.8
2014-Oct-24 09:40 071 0 gusting 5 22.8
2014-Oct-24 09:35 088 1 gusting 6 22.8
2014-Oct-24 09:30 103 3 gusting 6 22.8
2014-Oct-24 09:25 103 3 gusting 6 22.8
2014-Oct-24 09:20 103 3 gusting 6 22.8
2014-Oct-24 09:15 103 4 gusting 7 22.8
2014-Oct-24 09:10 116 4 gusting 7 22.8
2014-Oct-24 09:05 092 3 gusting 6 22.2
2014-Oct-24 09:00 109 3 gusting 6 22.2
2014-Oct-24 08:55 121 2 gusting 6 22.2
2014-Oct-24 08:50 101 2 gusting 6 21.7
2014-Oct-24 08:45 098 1 gusting 6 21.1
2014-Oct-24 08:40 092 1 gusting 5 20.6
2014-Oct-24 08:35 100 20.0
2014-Oct-24 08:30 096 0 gusting 5 20.0
2014-Oct-24 08:25 076 19.4
2014-Oct-24 08:20 076 20.0
2014-Oct-24 08:15 076 0 gusting 2 20.0
2014-Oct-24 08:10 084 20.0
2014-Oct-24 08:05 106 0 gusting 6 21.1
2014-Oct-24 08:00 121 2 gusting 7 21.1
2014-Oct-24 07:55 112 2 gusting 7 21.1
2014-Oct-24 07:50 099 0 gusting 8 21.1
2014-Oct-24 07:45 122 3 gusting 8 21.1
2014-Oct-24 07:40 115 3 gusting 8 20.6
2014-Oct-24 07:35 110 3 gusting 8 20.0
2014-Oct-24 07:30 118 2 gusting 6 20.6
2014-Oct-24 07:25 122 3 gusting 7 20.6
2014-Oct-24 07:20 128 4 gusting 9 20.6
2014-Oct-24 07:15 119 5 gusting 9 20.0
2014-Oct-24 07:10 087 5 gusting 7 18.3
2014-Oct-24 07:05 097 4 gusting 6 16.1
2014-Oct-24 07:00 067 3 gusting 6 15.0
2014-Oct-23 23:35 111 16.7
2014-Oct-23 23:30 111 16.7
2014-Oct-23 23:25 111 16.7
2014-Oct-23 23:20 111 17.2
2014-Oct-23 23:15 111 17.2
2014-Oct-23 23:10 112 17.2
2014-Oct-23 23:05 128 17.2
2014-Oct-23 23:00 128 17.2